Zurück zum Katalog

TIANMU-1 19

AktivWetterSSO
NORAD 58660·PAYLOAD·🇨🇳 China

Gestartet Dec 27, 2023 von Jiuquan Satellite Launch Center

Loading…

Nächste Überflüge (nächste 24 Stunden)

TLE

AktuellSource: Space-Track

Epoche: Sep 14, 2026, 22:54 UTC

1 58660U 23208A   26257.95447322  .00007916  00000-0  25233-3 0  9999
2 58660  97.4579  14.8290 0004809  14.3794 345.7584 15.32799654151072

Verfolge TIANMU-1 19 in Echtzeit mit AllMySat

Download on the App Store